Location: Alfortville
(48.8058°N, 2.4204°E)
Time: 12:44:58
(UTC+00:00)

Meteor 1-19 Rocket - Pass Details

Date: 14 December 2023
Orbit: 806 x 928 km, 81.2° (Epoch: 01 March)

Event Time Altitude Azimuth Distance (km) Brightness Sun altitude
Rises 20:26:18 0° 236° (SW) 3,535 7.9 -43.5°
Reaches altitude 10° 20:29:23 10° 251° (WSW) 2,612 7.2 -44.0°
Enters shadow 20:31:58 19° 276° (W) 2,072 6.7 -44.4°
